Find Kuiper-00074

NORAD ID: 64821 Int'l Des: 2025-151 Owner: KUIP Country: US Constellation: amazon-leo operational
LEOCIRCULAR

現在のビュー

3D地球を読み込み中...

About Kuiper-00074

Kuiper-00074 (NORAD 64821) is a amazon-leo constellation satellite launched Jul 16, 2025 by KUIP of US. It operates in LEO, CIRCULAR orbit with a mass of 490.00 kg.

Kuiper-00074について

説明を読み込み中...

次回通過

Passes for default location (London). Set your location on the main map for personalized predictions.

高度履歴

Loading altitude history...

軌道要素

1 64821U 25151F 26194.86166522 .00329822 57686-4 59563-3 0 9996
2 64821 51.8751 4.8165 0004118 272.7663 87.2879 16.01028666 55334
Epoch: Jul 13, 2026 • Age: 8 hours

現在のステータス

高度 271.4 km
遠地点 / 近地点 N/A
速度 7.75 km/s
衛星直下点 8.25°N, 14.4°E
打ち上げ日 Jul 16, 2025
運用期間 0.9 years
タイプ internet

技術仕様

分類 Payload
質量 490.00 kg
乾燥質量 490.00 kg
総質量 490.00 kg
長さ 1.80 m
直径 0.70 m
スパン 5.00 m
形状 Box + 2 pan
製造者 KUIP
バスタイプ Kuiper
フェーズステータス In Orbit
所有者/国 KUIP/US

Most Searched